Location: Sternwarte ZA, Rosenfeld-Brittheim
(48.2889°N, 8.6789°E)
Time: 21:31:09
(UTC+02:00)

ISS - Pass Details

Date: 28 May 2017
Orbit: 402 x 409 km, 51.6° (Epoch: 25 May)

Event Time Altitude Azimuth Distance (km) Brightness Sun altitude
Rises 00:04:08 0° 276° (W) 2,332 0.4 -18.1°
Reaches altitude 10° 00:06:16 10° 283° (WNW) 1,471 -0.6 -18.2°
Maximum altitude 00:09:27 44° 358° (N) 574 -2.6 -18.4°
Drops below altitude 10° 00:12:38 10° 72° (ENE) 1,468 -1.0 -18.5°
Sets 00:14:46 0° 79° (E) 2,327 0.0 -18.6°
Enters shadow 00:14:53 - 80° (E) 2,375 0.0 -18.6°
